Home > Weather > Brasilia > Past weeks

Flag for Brazil Past Weather in Brasilia, Distrito Federal, Brazil — Yesterday and Last 2 Weeks

Now
75 °F

Sunny.


Feels Like: 77 °F
Forecast: N/A
Wind: 16 mph from Southeast

Location: Brasilia Aeroporto

Current Time: Jul 30, 2016 at 5:51:29 PM

Latest Report: Jul 30, 2016 at 5:00 PM


Visibility: 10 mi

Pressure: 30.18 "Hg (26.62 "Hg at 1091m altitude)

Humidity: 36%

Dew Point: 46 °F

Location of BrasiliaLocation

Past Weather in Brasilia — Graph

°F

Brasilia Temperature Yesterday

Maximum temperature yesterday: 79 °F (at 12:00 PM)
Minimum temperature yesterday: 50 °F (at 5:00 AM)
Average temperature yesterday: 66 °F

High & Low Weather Summary for the Past Weeks

 TemperatureHumidityPressure
High86 °F (Jul 16, 2:00 PM)94% (Jul 17, 6:00 AM)30.30 "Hg (Jul 17, 6:00 AM)
Low48 °F (Jul 18, 6:00 AM)16% (Jul 21, 1:00 PM)30.04 "Hg (Jul 15, 4:00 PM)
Average68 °F53%30.16 "Hg
* Reported Jul 15 4:00 PM — Jul 30 4:00 PM, Brasilia, Weather by CustomWeather, © 2016

Note: Actual official high and low records may vary slightly from our data, if they occured in-between our weather recording intervals... More about our weather records

Advertising

Brasilia Weather History for the Previous 24 Hours

Scroll right to see more
 ConditionsComfort  
Time TempWeatherWind HumidityBarometerVisibility
4:00 PM
Sat, Jul 30
77 °FSunny.18 mph32%30.15 "Hg10 mi
3:00 PM77 °FSunny.20 mph32%30.15 "Hg10 mi
2:00 PM77 °FSunny.20 mph34%30.18 "Hg10 mi
1:00 PM75 °FSunny.17 mph39%30.21 "Hg10 mi
12:00 PM73 °FPassing clouds.20 mph38%30.24 "HgN/A
11:00 AM73 °FSunny.18 mph44%30.27 "Hg10 mi
10:00 AM70 °FSunny.17 mph50%30.27 "Hg10 mi
9:00 AM64 °FSunny.16 mph60%30.24 "Hg10 mi
8:00 AM61 °FSunny.8 mph63%30.24 "Hg10 mi
7:00 AM55 °FSunny.8 mph72%30.21 "Hg10 mi
6:00 AM55 °FClear.10 mph72%30.21 "Hg10 mi
5:00 AM59 °FClear.10 mph63%30.18 "Hg10 mi
4:00 AM55 °FClear.7 mph72%30.18 "Hg10 mi
3:00 AM55 °FClear.3 mph72%30.18 "Hg10 mi
2:00 AM57 °FClear.3 mph67%30.21 "Hg10 mi
1:00 AM55 °FClear.No wind72%30.21 "Hg10 mi
12:00 AM57 °FClear.2 mph67%30.21 "Hg10 mi
11:00 PM
Fri, Jul 29
63 °FClear.6 mph56%30.24 "Hg10 mi
10:00 PM64 °FClear.8 mph49%30.21 "Hg10 mi
9:00 PM64 °FClear.8 mph46%30.21 "Hg10 mi
8:00 PM70 °FClear.10 mph40%30.18 "Hg10 mi
7:00 PM73 °FClear.5 mph36%30.18 "Hg10 mi
6:00 PM73 °FClear.8 mph36%30.15 "Hg10 mi
5:00 PM79 °FSunny.14 mph28%30.15 "Hg10 mi
Weather by CustomWeather, © 2016

See weather overviewHow to use our weather pages